• In Uzbekistan
  • List of Countries
  • For 7 days
  • Water Temperature
  • Satellite Maps
  • Weather Map
  • Weather Widgets
  • user-avatar
    Login

    Hourly Weather Igls

    Today, 24 April, Monday

    Time Temperature Precipitation Wind Pressure Humidity
    00:00 +1°C° 0 mm 1 mps 686 mmHg 96%
    01:00 -2°C° 0 mm 1 mps 685 mmHg 97%
    02:00 -1°C° 0 mm 1 mps 685 mmHg 96%
    03:00 -1°C° 0 mm 1 mps 684 mmHg 94%
    04:00 -2°C° 0 mm 2 mps 684 mmHg 93%
    05:00 -1°C° 0 mm 2 mps 685 mmHg 92%
    06:00 +2°C° 0 mm 2 mps 685 mmHg 92%
    07:00 +5°C° 0 mm 1 mps 685 mmHg 89%
    08:00 +7°C° 0 mm 1 mps 685 mmHg 88%
    09:00 +9°C° 0 mm 1 mps 685 mmHg 88%
    10:00 +11°C° 0 mm 1 mps 685 mmHg 87%
    11:00 +12°C° 0 mm 1 mps 684 mmHg 85%
    12:00 +12°C° 0 mm 1 mps 684 mmHg 84%
    13:00 +13°C° 0 mm 1 mps 684 mmHg 82%
    14:00 +13°C° 0.1 mm 1 mps 683 mmHg 81%
    15:00 +13°C° 0.1 mm 1 mps 683 mmHg 80%
    16:00 +13°C° 0.1 mm 1 mps 683 mmHg 80%
    17:00 +11°C° 0.1 mm 1 mps 682 mmHg 84%
    18:00 +9°C° 0.1 mm 1 mps 681 mmHg 89%
    19:00 +7°C° 0.1 mm 1 mps 681 mmHg 94%
    20:00 +7°C° 0 mm 1 mps 681 mmHg 94%
    21:00 +6°C° 0 mm 2 mps 681 mmHg 95%
    22:00 +6°C° 0 mm 2 mps 681 mmHg 95%
    23:00 +6°C° 0 mm 2 mps 681 mmHg 95%

    Tomorrow, 25 April, Tuesday

    Time Temperature Precipitation Wind Pressure Humidity
    00:00 +6°C° 0 mm 2 mps 681 mmHg 95%
    01:00 +5°C° 0 mm 2 mps 680 mmHg 95%
    02:00 +5°C° 0 mm 2 mps 680 mmHg 95%
    03:00 +5°C° 0 mm 2 mps 679 mmHg 95%
    04:00 +5°C° 0 mm 2 mps 679 mmHg 95%
    05:00 +6°C° 0 mm 2 mps 679 mmHg 93%
    06:00 +6°C° 0 mm 2 mps 679 mmHg 92%
    07:00 +7°C° 0 mm 2 mps 679 mmHg 90%
    08:00 +9°C° 0 mm 2 mps 679 mmHg 85%
    09:00 +12°C° 0 mm 2 mps 679 mmHg 80%
    10:00 +14°C° 0 mm 2 mps 679 mmHg 75%
    11:00 +14°C° 0.4 mm 2 mps 679 mmHg 75%
    12:00 +14°C° 0.4 mm 2 mps 678 mmHg 75%
    13:00 +15°C° 0.4 mm 2 mps 678 mmHg 75%
    14:00 +14°C° 0.8 mm 2 mps 678 mmHg 79%
    15:00 +13°C° 0.8 mm 2 mps 678 mmHg 83%
    16:00 +11°C° 0.8 mm 3 mps 677 mmHg 87%
    17:00 +10°C° 1.8 mm 2 mps 677 mmHg 90%
    18:00 +9°C° 1.8 mm 2 mps 677 mmHg 94%
    19:00 +8°C° 1.8 mm 2 mps 677 mmHg 97%
    20:00 +7°C° 1.5 mm 2 mps 677 mmHg 98%
    21:00 +7°C° 1.5 mm 2 mps 677 mmHg 98%
    22:00 +7°C° 1.5 mm 2 mps 677 mmHg 98%
    23:00 +6°C° 0.8 mm 2 mps 677 mmHg 98%

    Day after tomorrow, 26 April, Wednesday

    Time Temperature Precipitation Wind Pressure Humidity
    00:00 +6°C° 0.8 mm 2 mps 677 mmHg 98%
    01:00 +6°C° 0.8 mm 2 mps 677 mmHg 98%
    02:00 +5°C° 1.6 mm 2 mps 677 mmHg 98%
    03:00 +5°C° 1.6 mm 2 mps 677 mmHg 98%
    04:00 +5°C° 1.6 mm 2 mps 677 mmHg 98%
    05:00 +5°C° 1.2 mm 1 mps 677 mmHg 98%
    06:00 +5°C° 1.2 mm 1 mps 677 mmHg 98%
    07:00 +5°C° 1.2 mm 1 mps 676 mmHg 98%
    08:00 +5°C° 1.6 mm 1 mps 677 mmHg 97%
    09:00 +5°C° 1.6 mm 1 mps 677 mmHg 97%
    10:00 +5°C° 1.6 mm 1 mps 677 mmHg 97%
    11:00 +6°C° 1.5 mm 1 mps 677 mmHg 97%
    12:00 +6°C° 1.5 mm 1 mps 677 mmHg 97%
    13:00 +6°C° 1.5 mm 1 mps 677 mmHg 96%
    14:00 +6°C° 1.2 mm 1 mps 677 mmHg 96%
    15:00 +6°C° 1.2 mm 1 mps 677 mmHg 96%
    16:00 +6°C° 1.2 mm 1 mps 677 mmHg 96%
    17:00 +5°C° 0.9 mm 1 mps 677 mmHg 97%
    18:00 +5°C° 0.9 mm 1 mps 677 mmHg 97%
    19:00 +5°C° 0.9 mm 1 mps 677 mmHg 98%
    20:00 +4°C° 0.9 mm 1 mps 677 mmHg 98%
    21:00 +3°C° 0.9 mm 1 mps 677 mmHg 98%
    22:00 +3°C° 0.9 mm 1 mps 677 mmHg 99%
    23:00 +3°C° 0.9 mm 1 mps 677 mmHg 98%

    27 April, Thursday

    Time Temperature Precipitation Wind Pressure Humidity
    00:00 +3°C° 0.9 mm 1 mps 677 mmHg 98%
    01:00 +3°C° 0.9 mm 1 mps 677 mmHg 98%
    02:00 +3°C° 0.8 mm 1 mps 677 mmHg 98%
    03:00 +2°C° 0.8 mm 1 mps 677 mmHg 98%
    04:00 +2°C° 0.8 mm 1 mps 677 mmHg 98%
    05:00 +3°C° 0.7 mm 1 mps 677 mmHg 98%
    06:00 +3°C° 0.7 mm 1 mps 677 mmHg 98%
    07:00 +3°C° 0.7 mm 1 mps 678 mmHg 97%
    08:00 +4°C° 0.5 mm 1 mps 678 mmHg 97%
    09:00 +4°C° 0.5 mm 1 mps 678 mmHg 96%
    10:00 +5°C° 0.5 mm 1 mps 679 mmHg 95%
    11:00 +5°C° 0.8 mm 1 mps 679 mmHg 95%
    12:00 +5°C° 0.8 mm 1 mps 679 mmHg 95%
    13:00 +6°C° 0.8 mm 1 mps 679 mmHg 95%
    14:00 +5°C° 1.1 mm 1 mps 679 mmHg 95%
    15:00 +4°C° 1.1 mm 2 mps 679 mmHg 95%
    16:00 +4°C° 1.1 mm 2 mps 679 mmHg 96%
    17:00 +3°C° 1 mm 2 mps 679 mmHg 96%
    18:00 +3°C° 1 mm 2 mps 679 mmHg 97%
    19:00 +2°C° 1 mm 2 mps 679 mmHg 97%
    20:00 +2°C° 1.1 mm 2 mps 679 mmHg 97%
    21:00 +1°C° 1.1 mm 2 mps 679 mmHg 97%
    22:00 +1°C° 1.1 mm 2 mps 680 mmHg 97%
    23:00 +1°C° 1.1 mm 2 mps 680 mmHg 97%

    28 April, Friday

    Time Temperature Precipitation Wind Pressure Humidity
    00:00 +1°C° 1.1 mm 2 mps 679 mmHg 97%
    01:00 +1°C° 1.1 mm 2 mps 679 mmHg 97%
    02:00 +1°C° 1.2 mm 2 mps 679 mmHg 97%
    03:00 -1°C° 1.2 mm 2 mps 679 mmHg 97%
    04:00 -1°C° 1.2 mm 2 mps 679 mmHg 98%
    05:00 -1°C° 1.3 mm 2 mps 679 mmHg 98%
    06:00 -1°C° 1.3 mm 2 mps 679 mmHg 97%
    07:00 +1°C° 1.3 mm 2 mps 679 mmHg 97%
    08:00 +1°C° 1.2 mm 2 mps 679 mmHg 97%
    09:00 +1°C° 1.2 mm 2 mps 679 mmHg 97%
    10:00 +2°C° 1.2 mm 2 mps 679 mmHg 96%
    11:00 +2°C° 1.1 mm 2 mps 679 mmHg 96%
    12:00 +2°C° 1.1 mm 2 mps 680 mmHg 96%
    13:00 +2°C° 1.1 mm 2 mps 680 mmHg 96%
    14:00 +2°C° 0.9 mm 2 mps 680 mmHg 96%
    15:00 +2°C° 0.9 mm 2 mps 680 mmHg 96%
    16:00 +2°C° 0.9 mm 2 mps 680 mmHg 96%
    17:00 +2°C° 0.6 mm 2 mps 681 mmHg 96%
    18:00 +1°C° 0.6 mm 2 mps 681 mmHg 96%
    19:00 +1°C° 0.6 mm 2 mps 681 mmHg 97%
    20:00 -1°C° 0.3 mm 2 mps 682 mmHg 97%
    21:00 -2°C° 0.3 mm 2 mps 682 mmHg 97%
    22:00 -2°C° 0.3 mm 2 mps 683 mmHg 97%
    23:00 -4°C° 0 mm 2 mps 683 mmHg 96%

    29 April, Saturday

    Time Temperature Precipitation Wind Pressure Humidity
    00:00 -5°C° 0 mm 2 mps 683 mmHg 96%
    01:00 -6°C° 0 mm 2 mps 682 mmHg 96%
    02:00 -7°C° 0 mm 2 mps 682 mmHg 96%
    03:00 -7°C° 0 mm 2 mps 682 mmHg 96%
    04:00 -8°C° 0 mm 2 mps 682 mmHg 96%
    05:00 -6°C° 0 mm 2 mps 683 mmHg 95%
    06:00 -2°C° 0 mm 1 mps 684 mmHg 94%
    07:00 0°C° 0 mm 1 mps 684 mmHg 93%
    08:00 +2°C° 0 mm 1 mps 684 mmHg 93%
    09:00 +4°C° 0 mm 1 mps 684 mmHg 92%
    10:00 +5°C° 0 mm 0 mps 684 mmHg 92%
    11:00 +5°C° 0 mm 0 mps 684 mmHg 93%
    12:00 +6°C° 0 mm 0 mps 684 mmHg 93%
    13:00 +6°C° 0 mm 0 mps 684 mmHg 94%
    14:00 +6°C° 0.1 mm 0 mps 684 mmHg 94%
    15:00 +6°C° 0.1 mm 0 mps 683 mmHg 94%
    16:00 +6°C° 0.1 mm 0 mps 683 mmHg 94%
    17:00 +6°C° 0 mm 1 mps 683 mmHg 95%
    18:00 +4°C° 0 mm 1 mps 683 mmHg 96%
    19:00 +3°C° 0 mm 1 mps 683 mmHg 97%
    20:00 +3°C° 0 mm 1 mps 683 mmHg 96%
    21:00 +2°C° 0 mm 1 mps 683 mmHg 96%
    22:00 +1°C° 0 mm 2 mps 683 mmHg 96%
    23:00 -1°C° 0 mm 2 mps 683 mmHg 96%
    Show more